Location: Newark
(40.7066°N, 111.8219°W)
Time: 23:48:09
(UTC+00:00)

deb Explorer IX - Pass Details

Date: 19 November 2019
Orbit: 546 x 1104 km, 38.8° (Epoch: 11 December)

Event Time Altitude Azimuth Distance (km) Brightness Sun altitude
Exits shadow 10:52:17 17° 99° (E) 1,745 ? -38.9°
Drops below altitude 10° 10:53:22 10° 98° (E) 2,143 ? -38.7°
Sets 10:55:34 0° 96° (E) 2,982 ? -38.3°
